NIMBUS 2 DEB, 40641

Orbit data source: Space-Track

NIMBUS 2 DEB, 40641 is space debris in SSO originally from a launch on Sun, 15 May 1966 UTC launched from the Air Force Western Test Range (AFWTR). Debris objects in space refer to the collection of defunct objects orbiting the Earth. Examples of debris include non-operational satellites, rocket bodies, and fragments generated from explosions, collisions, or faulty payload assembly.

Loading next visibility...
Identifier
40641, 1966-040BE
Orbit
SSO
Country
Flag of USUS
Related business
Manufacturer
Unknown
Mission
Spacecraft
Bus & Motor
Unknown
Mass
Unknown
Launch date (UTC)
1966-05-15 (60 years ago)
Launch vehicle
Unknown
Launch site
Air Force Western Test Range (AFWTR)
Object type
Payload
Rocket body
Debris
Shape & HBR
Unknown shape, 0.1 m
Radar Cross Section
Small (<0.1 m²)

Expand to show TLE details & history
Last TLE update: 4 days ago

TLE from 4 days ago
0 NIMBUS 2 DEB
1 40641U 66040BE  25343.09791290  .00002224  00000-0  38494-2 0  9995
2 40641 100.4009 221.6521 0050209 287.8988  71.6670 13.44736639517350
Epoch: 2025-12-09T02:20Z
TLE epoch observation values (Epoch: 2025-12-09T02:20:59.674Z)
Latitude
-0°
Longitude
108.31598°
Altitude
1,082.811 km
Speed
7.316 km/s
True Right ascension
14h 46m 36s
True Declination
0° 00' 00"
Sunlit
Object was in daylight at epoch
Visualization orbit readout
Latitude
Unknown
Longitude
Unknown
Altitude
Unknown
Speed
Unknown
Apparent Right ascension
Unknown
Apparent Declination
Unknown
Sunlit
N/A
Visualization observer readout
Local Sidereal Time
08:17:58
Azimuth
Unknown
Elevation
Unknown
Doppler factor
Unknown
Orbital elements
Apogee altitude
1,126.524 km
Perigee altitude
1,051.54 km
Semi-major axis
7,467.169 km
Eccentricity
0.00502
Inclination
100.4009°
RAAN
221.6521°
Arg. of periapsis
287.8988°
True anomaly
72.21422°
Mean anomaly
71.667°
Eccentric anomaly
71.9405°
Mean motion
3.36364 °/min
Orbital period
107.03 mins
BSTAR
0.0038494
Loading maneuver chart data...
Computing Atmospheric mass density...
Loading historical data...
Loading historical data...
Loading historical data...
Loading historical data...
Loading historical data...
Loading historical data...
Loading historical data...

Documentation

Showing up to 5 results
|